Regional Weather Roundup
Issued by NWS

Home | Current Version | Previous Version | Graphics & Text | Print | Product List | Glossary On
Versions: 1 2 3 4 5 6 7 8 9 10 11 12 13 14 15 16 17 18 19 20 21 22 23 24 25 26 27 28 29 30 31 32 33 34 35 36 37 38 39 40 41 42 43 44 45 46 47 48 49 50
000
ASUS43 KFSD 270210
RWRSD

WEATHER ROUNDUP FOR SOUTH DAKOTA
NATIONAL WEATHER SERVICE SIOUX FALLS SD
800 PM CST FRI DEC 26 2014

NOTE: "FAIR" INDICATES FEW OR NO CLOUDS BELOW 12,000 FEET WITH NO
SIGNIFICANT WEATHER AND/OR OBSTRUCTIONS TO VISIBILITY.


SDZ001>005-009-010-012>017-270300-
NORTHWEST AND NORTH CENTRAL SOUTH DAKOTA

CITY           SKY/WX    TMP DP  RH WIND       PRES   REMARKS
BUFFALO          N/A     15  10  80 W5        30.03S WCI   8
FAITH            N/A     12   7  80 NW8       30.13R WCI   0
MOBRIDGE       PTCLDY    13   8  81 E8        30.15R WCI   2
$$

SDZ012>016-024>037-041>051-057-063-072>074-270300-
SOUTHWEST AND SOUTH CENTRAL SOUTH DAKOTA

CITY           SKY/WX    TMP DP  RH WIND       PRES   REMARKS
RAPID CTY ARPT CLOUDY    18  14  84 CALM      30.12R
PIERRE         PTCLDY    15  10  80 NE8       30.17S WCI   4
CUSTER         MOCLDY    10   7  87 S3        29.96R
ELLSWORTH AFB  CLOUDY    18  14  86 SW2       30.11
PHILIP         MOCLDY    11   6  81 NW5       30.18R WCI   3
PINE RIDGE     CLOUDY    18  11  74 N5        30.11R WCI  11
SPEARFISH      CLOUDY    18  14  86 CALM      30.08S
WINNER         LGT SNOW  20  15  81 N16       30.15S WCI   6
$$

SDZ004>011-016>023-039-040-270300-
NORTHEAST SOUTH DAKOTA

CITY           SKY/WX    TMP DP  RH WIND       PRES   REMARKS
ABERDEEN       CLOUDY    16  11  80 N14       30.21F WCI   2
WATERTOWN      CLOUDY    20  16  84 N16       30.12S WCI   6
SISSETON         N/A     19  17  92 N15       30.18S WCI   5
$$

SDZ017-020-022-023-036>040-048>070-270300-
SOUTHEAST SOUTH DAKOTA

CITY           SKY/WX    TMP DP  RH WIND       PRES   REMARKS
SIOUX FALLS    LGT SNOW  23  20  88 N12       30.08F FOG     WCI  12
HURON          CLOUDY    20  16  84 N16       30.16S WCI   6
CHAMBERLAIN    CLOUDY    19  14  80 N8        30.17R WCI   9
MITCHELL       LGT SNOW  23  20  88 N15       30.15F FOG     WCI  10
YANKTON        CLOUDY    25  19  80 N12       30.13R WCI  14
$$

ABBREVIATIONS USED IN REMARKS
   TC - TEMPERATURE IN CELSIUS
  WCI - WIND CHILL INDEX
   HX - HEAT INDEX
  VSB - VISIBILITY




USA.gov is the U.S. government's official web portal to all federal, state and local government web resources and services.